QPF
0.00 0.00 0.00 0.00 0.00 0.00 0.00 0.00 0.00 0.00 0.00 0.00 0.00 0.00 0.00 0.00 0.00 0.00 0.00 0.00 0.00 0.00 0.00 0.00 0.00 0.00 0.00 0.00 0.00 0.00 0.00 0.00 0.00 0.00 0.00 0.00 0.00 0.00 0.00 0.00 0.00 0.00 0.00 0.00
0.00 0.00 0.00 0.00 0.00 0.00 0.00 0.00 0.00 0.00 0.00 0.00 0.00 0.00 0.00 0.00 0.00 0.00 0.00 0.00 0.00 0.00 0.00 0.00 0.00 0.00 0.00 0.00 0.00 0.00 0.00 0.00 0.00 0.00 0.00 0.00 0.00 0.00 0.00 0.00 0.00 0.00 0.00 0.00
0.00 0.00 0.00 0.00 0.00 0.00 0.00 0.00 0.00 0.00 0.00 0.00 0.00 0.00 0.00 0.00 0.00 0.00 0.00 0.00 0.00 0.00 0.00 0.00 0.00 0.00 0.00 0.00 0.00 0.00 0.00 0.00 0.00 0.00 0.00 0.00 0.00 0.00 0.00 0.00 0.00 0.00 0.00 0.00
0.00 0.00 0.00 0.00 0.00 0.00 0.00 0.00 0.00 0.00 0.00 0.00 0.00 0.00 0.00 0.00 0.00 0.00 0.00 0.00 0.00 0.00 0.00 0.00 0.00 0.00 0.00 0.00 0.00 0.00 0.00 0.00 0.00 0.00 0.00 0.00 0.00 0.00 0.00 0.00 0.00 0.00 0.00 0.00
0.00 0.00 0.00 0.00 0.00 0.00 0.00 0.00 0.00 0.00 0.00 0.00 0.00 0.00 0.00 0.00 0.00 0.00 0.00 0.00 0.00 0.00 0.00 0.00 0.00 0.00 0.00 0.00 0.00 0.00 0.00 0.00 0.00 0.00 0.00 0.00 0.00 0.00 0.00 0.00 0.00 0.00 0.00 0.00
0.00 0.00 0.00 0.00 0.00 0.00 0.00 0.00 0.00 0.00 0.00 0.00 0.00 0.00 0.00 0.00 0.00 0.00 0.00 0.00 0.00 0.00 0.00 0.00 0.00 0.00 0.00 0.00 0.00 0.00 0.00 0.00 0.00 0.00 0.00 0.00 0.00 0.00 0.00 0.00 0.00 0.00 0.00 0.00
0.00 0.00 0.00 0.00 0.00 0.00 0.00 0.00 0.00 0.00 0.00 0.00 0.00 0.00 0.00 0.00 0.00 0.00 0.00 0.00 0.00 0.00 0.00 0.00 0.00 0.00 0.00 0.00 0.00 0.00 0.00 0.00 0.00 0.00 0.00 0.00 0.00 0.00 0.00 0.00 0.00 0.00 0.01 0.00
0.00 0.00 0.00 0.00 0.00 0.00 0.00 0.00 0.00 0.00 0.00 0.00 0.00 0.00 0.00 0.00 0.00 0.00 0.00 0.00 0.00 0.00 0.00 0.00 0.00 0.00 0.00 0.00 0.00 0.00 0.00 0.00 0.00 0.00 0.00 0.00 0.00 0.00 0.00 0.00 0.00 0.01 0.01 0.01
0.00 0.00 0.00 0.00 0.00 0.00 0.00 0.00 0.00 0.00 0.00 0.00 0.00 0.00 0.00 0.00 0.00 0.00 0.00 0.00 0.00 0.00 0.00 0.00 0.00 0.00 0.00 0.00 0.00 0.00 0.00 0.00 0.00 0.00 0.00 0.00 0.00 0.00 0.00 0.00 0.00 0.00 0.00 0.00
0.00 0.00 0.00 0.00 0.00 0.00 0.00 0.00 0.00 0.00 0.00 0.00 0.00 0.00 0.00 0.00 0.00 0.00 0.00 0.00 0.00 0.00 0.00 0.00 0.00 0.00 0.00 0.00 0.00 0.00 0.00 0.00 0.00 0.00 0.00 0.00 0.00 0.00 0.00 0.00 0.00 0.00 0.00 0.00
0.00 0.00 0.00 0.00 0.00 0.00 0.00 0.00 0.00 0.00 0.00 0.00 0.00 0.00 0.00 0.00 0.00 0.00 0.00 0.00 0.00 0.00 0.00 0.00 0.00 0.00 0.00 0.00 0.00 0.00 0.00 0.00 0.00 0.00 0.00 0.00 0.00 0.00 0.00 0.01 0.01 0.02 0.01 0.01
0.00 0.00 0.00 0.00 0.00 0.00 0.00 0.00 0.00 0.00 0.00 0.00 0.00 0.00 0.00 0.00 0.00 0.00 0.00 0.00 0.00 0.00 0.00 0.00 0.00 0.00 0.00 0.00 0.00 0.00 0.01 0.01 0.00 0.00 0.00 0.00 0.00 0.00 0.01 0.03 0.05 0.04 0.03 0.01
0.00 0.00 0.00 0.00 0.00 0.00 0.00 0.00 0.00 0.00 0.00 0.00 0.00 0.00 0.00 0.00 0.00 0.00 0.00 0.00 0.00 0.00 0.00 0.00 0.00 0.00 0.00 0.00 0.00 0.01 0.01 0.01 0.00 0.00 0.00 0.00 0.00 0.00 0.02 0.04 0.07 0.09 0.09 0.07
0.00 0.00 0.00 0.00 0.00 0.00 0.00 0.00 0.00 0.00 0.00 0.00 0.00 0.00 0.00 0.00 0.00 0.00 0.00 0.00 0.00 0.00 0.00 0.00 0.00 0.00 0.00 0.00 0.01 0.02 0.01 0.00 0.00 0.00 0.00 0.00 0.01 0.02 0.04 0.06 0.10 0.14 0.17 0.18
0.00 0.00 0.00 0.00 0.00 0.00 0.00 0.00 0.00 0.00 0.00 0.00 0.00 0.00 0.00 0.00 0.00 0.00 0.00 0.00 0.00 0.00 0.00 0.00 0.00 0.01 0.01 0.01 0.02 0.02 0.01 0.01 0.01 0.01 0.01 0.02 0.04 0.09 0.14 0.15 0.17 0.20 0.23 0.23
0.00 0.00 0.00 0.00 0.00 0.00 0.00 0.00 0.00 0.00 0.00 0.00 0.00 0.00 0.00 0.00 0.00 0.00 0.00 0.00 0.00 0.00 0.00 0.00 0.01 0.02 0.02 0.02 0.02 0.01 0.01 0.02 0.02 0.02 0.02 0.05 0.10 0.16 0.22 0.24 0.26 0.30 0.30 0.26
0.00 0.00 0.00 0.00 0.00 0.00 0.00 0.00 0.00 0.00 0.00 0.00 0.00 0.00 0.00 0.00 0.00 0.00 0.00 0.01 0.00 0.00 0.01 0.01 0.02 0.03 0.03 0.03 0.03 0.03 0.03 0.03 0.02 0.03 0.06 0.09 0.12 0.14 0.17 0.20 0.23 0.25 0.21 0.14
0.00 0.00 0.00 0.00 0.00 0.00 0.00 0.00 0.00 0.00 0.00 0.00 0.00 0.00 0.00 0.00 0.00 0.00 0.00 0.01 0.01 0.01 0.02 0.03 0.04 0.03 0.02 0.02 0.03 0.03 0.02 0.01 0.02 0.04 0.07 0.09 0.12 0.13 0.11 0.11 0.13 0.14 0.10 0.07
0.00 0.00 0.00 0.00 0.00 0.00 0.00 0.00 0.00 0.00 0.00 0.00 0.00 0.00 0.00 0.00 0.00 0.00 0.00 0.00 0.01 0.02 0.03 0.04 0.04 0.03 0.02 0.02 0.02 0.02 0.01 0.01 0.02 0.04 0.05 0.07 0.10 0.13 0.10 0.08 0.08 0.09 0.07 0.05
0.00 0.00 0.00 0.00 0.00 0.00 0.00 0.00 0.00 0.00 0.00 0.00 0.00 0.00 0.00 0.01 0.06 0.03 0.02 0.02 0.03 0.02 0.02 0.03 0.02 0.01 0.01 0.01 0.01 0.01 0.00 0.00 0.01 0.02 0.03 0.03 0.04 0.06 0.04 0.02 0.02 0.02 0.02 0.01
0.00 0.00 0.00 0.00 0.00 0.00 0.00 0.00 0.00 0.00 0.00 0.00 0.00 0.01 0.01 0.04 0.09 0.07 0.05 0.04 0.02 0.02 0.01 0.01 0.01 0.01 0.00 0.00 0.00 0.00 0.00 0.00 0.00 0.00 0.00 0.00 0.00 0.00 0.00 0.00 0.00 0.00 0.01 0.01
0.00 0.00 0.00 0.00 0.00 0.00 0.00 0.00 0.00 0.00 0.00 0.00 0.00 0.00 0.02 0.02 0.01 0.01 0.02 0.02 0.01 0.00 0.00 0.00 0.00 0.00 0.00 0.00 0.00 0.00 0.00 0.00 0.00 0.00 0.00 0.00 0.00 0.00 0.00 0.00 0.00 0.00 0.00 0.00
0.00 0.00 0.00 0.00 0.00 0.00 0.00 0.00 0.00 0.00 0.00 0.00 0.01 0.01 0.03 0.02 0.01 0.01 0.01 0.00 0.00 0.00 0.00 0.00 0.00 0.00 0.00 0.00 0.00 0.00 0.00 0.00 0.00 0.00 0.00 0.00 0.00 0.00 0.00 0.00 0.00 0.00 0.00 0.00
0.00 0.00 0.00 0.00 0.00 0.00 0.00 0.00 0.00 0.00 0.00 0.00 0.01 0.03 0.03 0.02 0.01 0.00 0.00 0.00 0.00 0.00 0.00 0.00 0.00 0.00 0.00 0.00 0.00 0.00 0.00 0.00 0.00 0.00 0.00 0.00 0.00 0.00 0.00 0.00 0.00 0.00 0.00 0.00
0.00 0.00 0.00 0.00 0.00 0.00 0.00 0.00 0.00 0.00 0.00 0.00 0.01 0.02 0.02 0.01 0.00 0.00 0.00 0.00 0.00 0.00 0.00 0.00 0.00 0.00 0.00 0.00 0.00 0.00 0.00 0.00 0.00 0.00 0.00 0.00 0.00 0.00 0.00 0.00 0.00 0.00 0.00 0.00
0.00 0.00 0.00 0.00 0.00 0.00 0.00 0.00 0.00 0.00 0.00 0.00 0.01 0.01 0.00 0.00 0.00 0.00 0.00 0.00 0.00 0.00 0.00 0.00 0.00 0.00 0.00 0.00 0.00 0.00 0.00 0.00 0.00 0.00 0.00 0.00 0.00 0.00 0.00 0.00 0.00 0.00 0.00 0.00
MSLP
1013.73 1014.29 1014.76 1015.09 1015.25 1015.24 1015.11 1014.89 1014.66 1014.50 1014.45 1014.55 1014.80 1015.20 1015.70 1016.25 1016.79 1017.26 1017.63 1017.85 1017.93 1017.85 1017.64 1017.31 1016.91 1016.44 1015.94 1015.43 1014.92 1014.40 1013.89 1013.37 1012.85 1012.32 1011.79 1011.27 1010.78 1010.32 1009.93 1009.61 1009.37 1009.22 1009.16 1009.16
1014.38 1014.90 1015.33 1015.63 1015.77 1015.76 1015.63 1015.43 1015.22 1015.07 1015.02 1015.11 1015.35 1015.72 1016.19 1016.72 1017.25 1017.73 1018.12 1018.38 1018.49 1018.45 1018.26 1017.94 1017.53 1017.05 1016.54 1016.02 1015.51 1015.01 1014.52 1014.02 1013.50 1012.97 1012.40 1011.81 1011.21 1010.63 1010.10 1009.65 1009.30 1009.07 1008.94 1008.92
1015.04 1015.49 1015.86 1016.10 1016.21 1016.18 1016.06 1015.88 1015.70 1015.56 1015.52 1015.60 1015.81 1016.14 1016.57 1017.06 1017.57 1018.04 1018.44 1018.72 1018.85 1018.83 1018.65 1018.34 1017.92 1017.43 1016.91 1016.39 1015.89 1015.42 1014.96 1014.51 1014.04 1013.52 1012.94 1012.31 1011.64 1010.96 1010.31 1009.73 1009.26 1008.93 1008.75 1008.70
1015.75 1016.10 1016.37 1016.54 1016.59 1016.55 1016.43 1016.27 1016.12 1016.01 1015.98 1016.05 1016.23 1016.52 1016.90 1017.34 1017.81 1018.26 1018.65 1018.93 1019.08 1019.06 1018.89 1018.56 1018.12 1017.61 1017.07 1016.54 1016.06 1015.61 1015.22 1014.83 1014.41 1013.95 1013.39 1012.75 1012.03 1011.27 1010.52 1009.83 1009.26 1008.84 1008.60 1008.51
1016.52 1016.76 1016.92 1017.00 1016.98 1016.91 1016.78 1016.65 1016.53 1016.46 1016.45 1016.52 1016.68 1016.93 1017.26 1017.64 1018.06 1018.48 1018.84 1019.11 1019.25 1019.22 1019.03 1018.68 1018.20 1017.65 1017.08 1016.54 1016.05 1015.65 1015.30 1014.98 1014.64 1014.24 1013.73 1013.11 1012.37 1011.56 1010.72 1009.94 1009.28 1008.78 1008.48 1008.37
1017.39 1017.51 1017.55 1017.51 1017.43 1017.31 1017.18 1017.07 1016.99 1016.96 1016.97 1017.05 1017.20 1017.41 1017.69 1018.02 1018.38 1018.75 1019.07 1019.31 1019.41 1019.36 1019.13 1018.74 1018.22 1017.62 1017.01 1016.44 1015.95 1015.56 1015.26 1015.01 1014.75 1014.42 1013.97 1013.38 1012.64 1011.79 1010.90 1010.05 1009.30 1008.74 1008.38 1008.24
1018.35 1018.34 1018.26 1018.12 1017.95 1017.79 1017.66 1017.57 1017.52 1017.53 1017.58 1017.67 1017.81 1017.99 1018.22 1018.49 1018.79 1019.09 1019.36 1019.54 1019.61 1019.51 1019.23 1018.79 1018.22 1017.57 1016.92 1016.32 1015.82 1015.45 1015.19 1014.99 1014.80 1014.53 1014.14 1013.58 1012.85 1011.98 1011.04 1010.12 1009.31 1008.68 1008.28 1008.12
1019.36 1019.24 1019.04 1018.79 1018.55 1018.35 1018.21 1018.14 1018.14 1018.18 1018.27 1018.38 1018.51 1018.66 1018.83 1019.03 1019.26 1019.49 1019.69 1019.81 1019.82 1019.68 1019.36 1018.87 1018.26 1017.57 1016.88 1016.26 1015.75 1015.38 1015.15 1014.99 1014.85 1014.63 1014.28 1013.74 1013.02 1012.13 1011.15 1010.17 1009.30 1008.61 1008.16 1007.98
1020.36 1020.14 1019.83 1019.50 1019.20 1018.97 1018.82 1018.77 1018.81 1018.90 1019.02 1019.14 1019.26 1019.37 1019.49 1019.62 1019.77 1019.91 1020.04 1020.10 1020.05 1019.86 1019.51 1019.00 1018.36 1017.66 1016.95 1016.32 1015.81 1015.45 1015.23 1015.09 1014.97 1014.78 1014.44 1013.91 1013.18 1012.26 1011.24 1010.21 1009.28 1008.53 1008.04 1007.83
1021.28 1020.98 1020.60 1020.21 1019.86 1019.61 1019.47 1019.45 1019.52 1019.64 1019.79 1019.92 1020.02 1020.10 1020.16 1020.21 1020.27 1020.34 1020.38 1020.38 1020.29 1020.08 1019.72 1019.21 1018.58 1017.89 1017.20 1016.58 1016.07 1015.71 1015.49 1015.35 1015.22 1015.02 1014.68 1014.13 1013.37 1012.43 1011.36 1010.29 1009.30 1008.50 1007.96 1007.72
1022.06 1021.71 1021.28 1020.86 1020.50 1020.25 1020.13 1020.14 1020.24 1020.39 1020.55 1020.69 1020.77 1020.80 1020.80 1020.78 1020.76 1020.75 1020.73 1020.68 1020.57 1020.35 1020.01 1019.53 1018.95 1018.31 1017.66 1017.06 1016.57 1016.21 1015.97 1015.81 1015.64 1015.41 1015.02 1014.44 1013.65 1012.67 1011.57 1010.45 1009.42 1008.58 1008.00 1007.72
1022.69 1022.31 1021.88 1021.46 1021.11 1020.88 1020.80 1020.84 1020.97 1021.14 1021.31 1021.42 1021.48 1021.46 1021.40 1021.32 1021.23 1021.16 1021.10 1021.03 1020.91 1020.72 1020.43 1020.02 1019.51 1018.93 1018.34 1017.79 1017.32 1016.95 1016.68 1016.46 1016.24 1015.94 1015.49 1014.86 1014.03 1013.02 1011.89 1010.76 1009.71 1008.84 1008.23 1007.92
1023.18 1022.82 1022.42 1022.03 1021.72 1021.54 1021.49 1021.56 1021.71 1021.89 1022.04 1022.14 1022.16 1022.11 1021.99 1021.86 1021.72 1021.61 1021.53 1021.46 1021.37 1021.23 1021.01 1020.69 1020.27 1019.78 1019.26 1018.74 1018.28 1017.89 1017.56 1017.27 1016.97 1016.59 1016.07 1015.38 1014.52 1013.49 1012.37 1011.25 1010.20 1009.34 1008.71 1008.37
1023.60 1023.29 1022.95 1022.63 1022.38 1022.25 1022.24 1022.33 1022.48 1022.65 1022.78 1022.85 1022.84 1022.74 1022.59 1022.42 1022.27 1022.15 1022.07 1022.03 1021.99 1021.92 1021.78 1021.55 1021.22 1020.81 1020.35 1019.87 1019.40 1018.96 1018.56 1018.18 1017.78 1017.30 1016.72 1015.98 1015.10 1014.09 1013.00 1011.92 1010.92 1010.08 1009.47 1009.10
1024.02 1023.80 1023.55 1023.31 1023.13 1023.05 1023.06 1023.16 1023.29 1023.43 1023.53 1023.56 1023.51 1023.39 1023.23 1023.05 1022.90 1022.80 1022.75 1022.75 1022.77 1022.78 1022.72 1022.57 1022.33 1021.98 1021.56 1021.08 1020.58 1020.08 1019.60 1019.11 1018.60 1018.03 1017.38 1016.62 1015.74 1014.77 1013.75 1012.75 1011.83 1011.05 1010.46 1010.09
1024.51 1024.40 1024.24 1024.09 1023.98 1023.94 1023.96 1024.04 1024.14 1024.23 1024.29 1024.28 1024.20 1024.06 1023.90 1023.74 1023.62 1023.56 1023.56 1023.62 1023.70 1023.77 1023.78 1023.70 1023.51 1023.20 1022.78 1022.29 1021.74 1021.16 1020.57 1019.98 1019.37 1018.71 1018.01 1017.23 1016.39 1015.49 1014.57 1013.68 1012.86 1012.16 1011.62 1011.26
1025.10 1025.09 1025.04 1024.97 1024.92 1024.89 1024.90 1024.94 1024.98 1025.02 1025.02 1024.98 1024.88 1024.75 1024.61 1024.49 1024.42 1024.42 1024.48 1024.59 1024.73 1024.84 1024.90 1024.85 1024.68 1024.37 1023.94 1023.40 1022.78 1022.12 1021.43 1020.73 1020.03 1019.31 1018.57 1017.80 1017.01 1016.20 1015.39 1014.62 1013.92 1013.32 1012.84 1012.50
1025.76 1025.86 1025.90 1025.88 1025.85 1025.82 1025.79 1025.78 1025.77 1025.75 1025.70 1025.63 1025.54 1025.43 1025.34 1025.27 1025.27 1025.32 1025.44 1025.60 1025.77 1025.90 1025.97 1025.92 1025.74 1025.41 1024.94 1024.34 1023.66 1022.92 1022.14 1021.35 1020.57 1019.81 1019.05 1018.31 1017.58 1016.86 1016.17 1015.53 1014.94 1014.44 1014.02 1013.69
1026.44 1026.61 1026.70 1026.72 1026.69 1026.63 1026.56 1026.49 1026.42 1026.35 1026.28 1026.21 1026.14 1026.09 1026.05 1026.06 1026.12 1026.23 1026.39 1026.58 1026.75 1026.88 1026.93 1026.85 1026.63 1026.26 1025.74 1025.09 1024.35 1023.54 1022.70 1021.85 1021.02 1020.23 1019.48 1018.76 1018.09 1017.46 1016.88 1016.34 1015.85 1015.42 1015.05 1014.74
1027.03 1027.25 1027.36 1027.38 1027.33 1027.23 1027.12 1027.00 1026.89 1026.81 1026.74 1026.70 1026.68 1026.69 1026.74 1026.82 1026.95 1027.11 1027.30 1027.48 1027.63 1027.73 1027.73 1027.60 1027.33 1026.90 1026.34 1025.65 1024.87 1024.02 1023.15 1022.27 1021.43 1020.63 1019.89 1019.21 1018.58 1018.02 1017.51 1017.05 1016.64 1016.26 1015.92 1015.61
1027.46 1027.69 1027.79 1027.78 1027.70 1027.56 1027.41 1027.27 1027.16 1027.09 1027.07 1027.09 1027.16 1027.26 1027.40 1027.56 1027.74 1027.94 1028.12 1028.28 1028.39 1028.43 1028.36 1028.17 1027.84 1027.37 1026.78 1026.07 1025.28 1024.43 1023.55 1022.68 1021.85 1021.06 1020.33 1019.68 1019.09 1018.56 1018.09 1017.68 1017.30 1016.95 1016.62 1016.31
1027.70 1027.88 1027.94 1027.89 1027.77 1027.61 1027.45 1027.32 1027.24 1027.23 1027.29 1027.42 1027.59 1027.80 1028.03 1028.26 1028.49 1028.70 1028.87 1028.99 1029.03 1028.99 1028.85 1028.59 1028.21 1027.72 1027.11 1026.41 1025.64 1024.81 1023.97 1023.13 1022.32 1021.55 1020.85 1020.21 1019.63 1019.12 1018.66 1018.25 1017.88 1017.53 1017.20 1016.87
1027.74 1027.85 1027.84 1027.74 1027.59 1027.42 1027.28 1027.20 1027.20 1027.29 1027.46 1027.71 1028.01 1028.33 1028.65 1028.96 1029.22 1029.42 1029.56 1029.62 1029.59 1029.47 1029.25 1028.93 1028.51 1028.00 1027.40 1026.73 1025.99 1025.22 1024.43 1023.64 1022.87 1022.13 1021.44 1020.81 1020.23 1019.71 1019.24 1018.81 1018.42 1018.05 1017.70 1017.35
1027.63 1027.65 1027.57 1027.42 1027.25 1027.10 1027.01 1027.01 1027.11 1027.33 1027.64 1028.02 1028.45 1028.88 1029.29 1029.64 1029.92 1030.11 1030.20 1030.19 1030.09 1029.89 1029.60 1029.23 1028.78 1028.26 1027.69 1027.05 1026.38 1025.67 1024.94 1024.21 1023.48 1022.77 1022.10 1021.46 1020.87 1020.33 1019.83 1019.37 1018.95 1018.55 1018.17 1017.81
1027.46 1027.38 1027.23 1027.05 1026.89 1026.77 1026.76 1026.85 1027.08 1027.43 1027.88 1028.40 1028.94 1029.46 1029.94 1030.32 1030.60 1030.77 1030.81 1030.73 1030.56 1030.29 1029.94 1029.53 1029.06 1028.55 1028.00 1027.41 1026.79 1026.14 1025.47 1024.79 1024.10 1023.42 1022.76 1022.12 1021.52 1020.95 1020.42 1019.93 1019.47 1019.05 1018.65 1018.26
1027.33 1027.16 1026.96 1026.76 1026.61 1026.56 1026.63 1026.84 1027.19 1027.67 1028.24 1028.86 1029.49 1030.08 1030.59 1030.99 1031.26 1031.39 1031.38 1031.25 1031.01 1030.68 1030.29 1029.85 1029.37 1028.86 1028.32 1027.77 1027.19 1026.59 1025.96 1025.32 1024.67 1024.01 1023.36 1022.72 1022.11 1021.53 1020.98 1020.47 1019.99 1019.54 1019.12 1018.73
Thickness
5702 5685 5667 5669 5673 5668 5667 5664 5663 5674 5678 5671 5663 5656 5643 5643 5635 5625 5617 5612 5609 5609 5608 5608 5608 5608 5606 5605 5604 5606 5608 5610 5611 5613 5613 5613 5614 5616 5618 5620 5620 5619 5618 5618
5691 5668 5672 5677 5677 5672 5667 5663 5665 5672 5677 5666 5660 5654 5636 5631 5622 5614 5607 5600 5595 5594 5594 5592 5590 5588 5587 5584 5582 5582 5584 5587 5588 5590 5593 5596 5599 5600 5601 5604 5605 5603 5601 5602
5670 5667 5675 5673 5669 5662 5661 5658 5651 5649 5656 5660 5655 5644 5622 5618 5614 5606 5597 5590 5586 5582 5578 5576 5573 5570 5568 5565 5563 5562 5562 5564 5566 5568 5572 5576 5580 5583 5583 5583 5584 5585 5584 5585
5672 5669 5667 5666 5655 5648 5645 5654 5647 5644 5633 5633 5640 5617 5601 5602 5596 5589 5581 5576 5572 5568 5564 5560 5557 5554 5551 5549 5546 5544 5544 5542 5541 5541 5545 5546 5550 5554 5559 5562 5565 5567 5566 5565
5660 5656 5654 5649 5645 5646 5643 5646 5644 5641 5630 5622 5623 5610 5607 5591 5580 5571 5567 5563 5559 5554 5549 5543 5540 5537 5534 5532 5529 5527 5525 5523 5520 5517 5515 5515 5518 5523 5530 5535 5539 5543 5546 5546
5660 5657 5649 5642 5647 5651 5645 5645 5652 5649 5631 5609 5619 5606 5590 5571 5559 5556 5553 5547 5541 5535 5531 5526 5522 5519 5516 5513 5510 5507 5503 5500 5496 5493 5488 5485 5486 5491 5498 5507 5512 5516 5520 5523
5658 5651 5648 5644 5636 5635 5631 5619 5617 5614 5610 5608 5618 5605 5563 5556 5552 5544 5535 5526 5521 5517 5513 5509 5505 5500 5495 5490 5486 5483 5480 5477 5472 5467 5463 5459 5458 5461 5469 5479 5486 5491 5496 5499
5635 5636 5632 5629 5619 5610 5613 5607 5586 5576 5585 5596 5602 5586 5544 5552 5541 5530 5519 5511 5506 5500 5492 5486 5481 5475 5470 5465 5460 5457 5455 5452 5449 5444 5439 5435 5433 5435 5443 5453 5464 5472 5476 5478
5617 5623 5634 5624 5620 5612 5603 5593 5589 5574 5577 5576 5590 5537 5544 5543 5525 5512 5500 5491 5481 5474 5468 5462 5457 5450 5445 5440 5437 5433 5431 5428 5424 5419 5416 5413 5411 5412 5420 5432 5445 5456 5461 5461
5608 5604 5620 5622 5616 5609 5601 5590 5576 5570 5561 5557 5569 5563 5529 5516 5498 5486 5475 5467 5461 5454 5446 5439 5432 5426 5422 5418 5415 5413 5411 5407 5400 5393 5387 5385 5384 5388 5395 5408 5424 5439 5448 5450
5602 5595 5605 5612 5605 5587 5585 5584 5574 5562 5553 5534 5534 5535 5517 5487 5473 5463 5457 5450 5439 5431 5424 5419 5413 5408 5404 5399 5397 5396 5392 5385 5375 5364 5357 5354 5357 5363 5372 5384 5401 5419 5431 5435
5591 5581 5584 5595 5589 5585 5575 5567 5554 5534 5530 5521 5505 5513 5511 5480 5463 5450 5440 5435 5425 5416 5408 5400 5392 5390 5387 5383 5381 5379 5373 5362 5350 5342 5338 5337 5339 5344 5353 5365 5381 5398 5410 5416
5575 5574 5574 5580 5573 5570 5563 5555 5543 5528 5511 5493 5478 5496 5506 5479 5459 5444 5429 5416 5404 5396 5390 5381 5376 5374 5371 5368 5366 5362 5355 5344 5335 5331 5329 5329 5329 5332 5340 5350 5363 5377 5388 5396
5570 5565 5563 5555 5553 5549 5541 5533 5523 5507 5481 5474 5470 5463 5459 5442 5427 5417 5405 5394 5385 5376 5369 5363 5361 5360 5358 5356 5352 5347 5340 5331 5326 5323 5323 5322 5321 5323 5329 5337 5348 5359 5369 5378
5563 5558 5560 5556 5550 5542 5532 5520 5510 5495 5478 5453 5445 5431 5423 5409 5398 5389 5380 5372 5364 5356 5351 5347 5344 5345 5345 5342 5337 5330 5325 5320 5317 5317 5316 5314 5312 5313 5318 5326 5335 5345 5355 5364
5557 5548 5547 5545 5546 5533 5520 5511 5498 5476 5458 5438 5421 5412 5405 5395 5386 5374 5361 5350 5340 5336 5332 5329 5328 5330 5328 5323 5319 5316 5313 5311 5309 5309 5308 5307 5306 5307 5311 5319 5326 5334 5341 5348
5547 5535 5527 5515 5522 5508 5503 5485 5467 5446 5430 5413 5394 5388 5385 5377 5367 5355 5345 5328 5322 5318 5315 5312 5311 5310 5309 5307 5305 5304 5303 5301 5300 5300 5301 5301 5302 5305 5307 5310 5315 5320 5324 5329
5531 5524 5510 5493 5484 5460 5471 5466 5448 5429 5419 5402 5391 5381 5372 5363 5356 5347 5334 5316 5310 5305 5302 5301 5299 5297 5294 5292 5292 5293 5292 5292 5292 5292 5293 5294 5296 5299 5301 5303 5306 5308 5311 5315
5519 5507 5488 5462 5452 5457 5464 5444 5429 5411 5402 5398 5379 5372 5365 5355 5350 5346 5324 5309 5301 5295 5291 5289 5288 5284 5281 5280 5281 5283 5283 5284 5285 5286 5286 5287 5289 5291 5292 5294 5296 5299 5301 5303
5509 5497 5475 5457 5432 5426 5435 5426 5417 5399 5390 5388 5374 5362 5350 5336 5329 5326 5311 5301 5295 5289 5285 5281 5279 5276 5273 5272 5273 5274 5274 5275 5277 5279 5279 5280 5281 5283 5285 5287 5289 5291 5293 5295
5494 5480 5459 5442 5424 5426 5429 5420 5403 5375 5365 5370 5363 5348 5333 5320 5312 5305 5299 5294 5288 5283 5278 5274 5270 5267 5264 5264 5264 5263 5264 5265 5268 5270 5270 5271 5271 5273 5275 5278 5280 5283 5286 5289
5488 5473 5460 5440 5412 5404 5417 5404 5384 5374 5373 5364 5348 5333 5322 5314 5307 5300 5294 5289 5283 5276 5271 5266 5261 5258 5255 5255 5253 5252 5251 5253 5255 5257 5257 5258 5259 5261 5263 5264 5267 5270 5273 5276
5476 5469 5449 5437 5423 5420 5410 5396 5386 5376 5363 5349 5335 5325 5315 5307 5299 5292 5287 5282 5274 5267 5261 5256 5252 5248 5247 5245 5243 5240 5239 5240 5241 5242 5243 5243 5244 5245 5248 5250 5251 5254 5255 5257
5480 5468 5445 5430 5422 5415 5405 5394 5381 5364 5348 5336 5325 5315 5307 5297 5291 5285 5280 5273 5265 5257 5251 5246 5242 5238 5236 5234 5232 5228 5226 5225 5226 5226 5227 5228 5229 5229 5230 5233 5235 5235 5236 5236
5466 5455 5435 5422 5416 5409 5395 5381 5370 5354 5341 5329 5317 5310 5300 5291 5285 5278 5271 5263 5253 5246 5240 5236 5230 5227 5224 5222 5220 5217 5213 5212 5211 5211 5211 5212 5214 5213 5212 5212 5214 5218 5219 5220
5455 5442 5425 5415 5407 5390 5381 5372 5359 5344 5331 5319 5309 5303 5294 5286 5278 5271 5261 5251 5242 5235 5229 5225 5221 5217 5212 5209 5206 5203 5199 5198 5196 5196 5196 5196 5196 5196 5196 5194 5194 5196 5199 5201